Location: Asheville, NC
(35.6000°N, 82.5500°W)
Time: 23:14:01
(UTC-04:00)

Vanguard 1 - Pass Details

Date: 16 February 2018
Orbit: 650 x 3833 km, 34.2° (Epoch: 20 May)

Event Time Altitude Azimuth Distance (km) Brightness Sun altitude
Rises 17:16:41 0° 254° (WSW) 5,290 16.0 10.0°
Reaches altitude 10° 17:20:54 10° 252° (WSW) 3,790 16.4 9.3°
Maximum altitude 17:29:36 71° 171° (S) 1,060 10.5 7.6°
Drops below altitude 10° 17:34:47 10° 87° (E) 2,306 11.4 6.6°
Sets 17:36:48 0° 85° (E) 3,097 12.0 6.2°
